Preview of NWS' New Version of Forecast
This preview is not operational and should not be used for support decisions.

Regional Weather Roundup (RWR)

Issued by National Weather Service (NWS)

                            
000
ASUS42 KTBW 171718
RWRFL 
FLORIDA REGIONAL WEATHER ROUNDUP
NATIONAL WEATHER SERVICE TAMPA BAY RUSKIN FL
1200 PM EST SUN FEB 17 2019

NOTE: "FAIR" INDICATES FEW OR NO CLOUDS BELOW 12,000 FEET WITH NO
SIGNIFICANT WEATHER AND/OR OBSTRUCTIONS TO VISIBILITY.

FLZ001>010-012>015-112-114-115-171800-
PANHANDLE FLORIDA
  
CITY           SKY/WX    TMP DP  RH WIND       PRES   REMARKS
PENSACOLA      CLOUDY    74  67  78 S14       29.89S                  
PENSACOLA NAS  PTSUNNY   75  70  84 SE13      29.88S                  
MILTON NAS     CLOUDY    75  69  81 S14       29.89                   
CRESTVIEW      CLOUDY    77  67  71 S10G17    29.91F                  
DUKE FIELD     FAIR      74  65  74 S15       29.90F                  
VALPARAISO     PTSUNNY   74  66  75 SE15      29.90S                  
MARY ESTHER    CLOUDY    72  67  83 SE12      29.89                   
PANAMA CITY    CLOUDY    76  64  66 SE16      29.93S                  
TYNDALL AFB    FAIR      77  69  78 S15       29.92F                  
APALACHICOLA   CLOUDY    70  65  84 S8        29.95R                  

STATION/POSITION SKY/WX   TEMP    WIND        PRES    WAVE   SWELL
                          AIR SEA DIR/SP/G            HT/PER HT/PER
                          (F)     (DEG/KT/KT) (MB)    (FT/S) (FT/S)
30.1N   87.6W              67     120/  8/ 10 1012.0
29.2N   88.2W                     170/ 10/ 12 1011.8S   3/ 5   2/ 5
PANAMA CITY BEAC           66 63  120/ 12/ 13 1013.6F
TOWER C                    68     170/ 12/ 12 1014.2R

$$
FLZ011-016>038-118-127-128-134-139-239-171800-
NORTH FLORIDA
  
CITY           SKY/WX    TMP DP  RH WIND       PRES   REMARKS
MARIANNA       PTSUNNY   76  66  71 S12G17    29.93S                  
TALLAHASSEE    CLOUDY    72  66  81 SE9       29.97S                  
PERRY          CLOUDY    69  68  97 S5        29.99S FOG              
LIVE OAK       CLOUDY    72  70  94 CALM      29.98R                  
CROSS CITY     PTSUNNY   78  66  65 S15G21    29.97S                  
LAKE CITY      CLOUDY    70  66  88 S3        29.99R                  
GAINESVILLE    PTSUNNY   81  65  58 S12       29.99F                  
WILLISTON        N/A    N/A N/A N/A MISG        N/A                   
PALATKA        PTSUNNY   79  66  65 S9        29.98F                  
MAYPORT NAS    FAIR      71  65  81 SE10      29.97F                  
JACKSONVILLE   PTSUNNY   75  67  76 S6        29.96F                  
JAX NAS        PTSUNNY   73  67  81 S9        29.99F                  
JAX CECIL      PTSUNNY   79  68  69 S10       29.97F                  
FERNANDINA BEA CLOUDY    69  64  86 S13       29.98F                  
ST AUGUSTINE   PTSUNNY   73  66  78 SE9       30.00F                  
PALM COAST     CLOUDY    81  64  57 SW8       29.99F                  

STATION/POSITION SKY/WX   TEMP    WIND        PRES    WAVE   SWELL
                          AIR SEA DIR/SP/G            HT/PER HT/PER
                          (F)     (DEG/KT/KT) (MB)    (FT/S) (FT/S)
SHELL POINT      NOT AVBL
KEATON BEACH               66     180/ 10/ 12 1015.6R
CEDAR KEY                  67     170/ 12/ 14 1015.0F
FERNANDINA                 70 61  150/  8/ 11 1015.8F
30.7N   81.3W                 61                N/A     1/ 8
MAYPORT                    68 60  150/  7/ 11 1015.4F
31.4N   80.9W              59 58   60/  4/  6 1015.8F   3/ 6   2/ 6
ST AUGUSTINE               62 60  140/  4/  5 1016.0F

$$
FLZ040-043>046-052-053-057-058-063-144-171800-
INTERIOR CENTRAL FLORIDA
  
CITY           SKY/WX    TMP DP  RH WIND       PRES   REMARKS
OCALA          FAIR      81  63  54 S15       29.98F                  
LEESBURG       FAIR      79  62  56 S10       30.00F                  
SANFORD        FAIR      80  64  58 SW10G16   29.99F                  
ORLANDO EXEC   FAIR      79  62  56 S12       30.00F                  
ORLANDO INTL   FAIR      80  63  55 S13       30.00F                  
KISSIMMEE      FAIR      80  65  59 S13       30.01F                  
WINTER HAVEN   FAIR      83  64  52 S9        30.01F                  
LAKELAND       SUNNY     81  64  57 S10       30.01F                  
SEBRING        PTSUNNY   82  65  56 S13       30.02F                  
OKEECHOBEE     FAIR      79  68  69 S8        30.03S                  

$$
FLZ041-047-054-059-064-141-147-171800-
EAST CENTRAL FLORIDA
  
CITY           SKY/WX    TMP DP  RH WIND       PRES   REMARKS
ORMOND BEACH   PTSUNNY   79  64  61 S3        30.00F                  
DAYTONA BEACH  PTSUNNY   80  66  62 S7        30.00F                  
DELAND         PTSUNNY   81  63  54 S7        29.99F                  
NEW SMYRNA BEA MOSUNNY   82  63  51 S8        30.01F                  
JFK SPACE CTR  FAIR      80  64  58 S7        30.01F                  
TITUSVILLE     SUNNY     81  63  54 S13       30.03S                  
CAPE CANAVERAL FAIR      74  66  75 SE9       30.01F                  
PATRICK AFB    FAIR      72  68  88 SE10      30.01F                  
MELBOURNE      FAIR      79  66  64 SE6       30.01F                  
VERO BEACH     PTSUNNY   78  66  66 VRB7      30.02F                  
FT PIERCE      PTSUNNY   83  65  54 S9        30.01F                  

STATION/POSITION SKY/WX   TEMP    WIND        PRES    WAVE   SWELL
                          AIR SEA DIR/SP/G            HT/PER HT/PER
                          (F)     (DEG/KT/KT) (MB)    (FT/S) (FT/S)
28.5N   80.2W              67     170/  8/ 10 1017.3
28.9N   78.5W              75 75  190/  8/  8 1017.9F   3/ 8   3/ 8
TRIDENT PIER               69 65  150/  7/  9 1017.7F
28.4N   80.5W                 65                N/A     1/ 8

$$
FLZ050-056-061-142-242-148-248-149-249-151-251-155-255-
160-260-171800-
WEST CENTRAL FLORIDA
  
CITY           SKY/WX    TMP DP  RH WIND       PRES   REMARKS
CRYSTAL RIVER  FAIR      81  63  54 S6        29.98F                  
INVERNESS      FAIR      82  64  54 S9        29.99F                  
BROOKSVILLE    FAIR      82  64  54 SW13      29.99F                  
CLEARWATER AIR FAIR      79  63  57 S14       29.98F                  
ST PETE CLEARW FAIR      82  63  52 S15       29.98F                  
TAMPA INTL     FAIR      80  66  62 SW8       29.99F                  
TAMPA EXEC     FAIR      82  66  57 S9        29.99F                  
PLANT CITY     FAIR      84  64  51 S12       30.01F                  
MACDILL AFB    FAIR      79  65  63 S9        29.98F                  
PETER O KNIGHT CLOUDY    81  68  65 S7        30.00F                  
ST PETERSBURG  FAIR      80  64  58 S16       29.97F                  
SARASOTA       FAIR      83  65  54 S21G29    29.97F                  
VENICE         FAIR      82  72  69 S20G26    30.00F                  

STATION/POSITION SKY/WX   TEMP    WIND        PRES    WAVE   SWELL
                          AIR SEA DIR/SP/G            HT/PER HT/PER
                          (F)     (DEG/KT/KT) (MB)    (FT/S) (FT/S)
27.3N   84.2W                 71                N/A     3/ 5
CLEARWATER BEACH           76 66  170/ 14/ 18 1015.5F
MIDDLE TAMPA BAY           74     210/ 14/ 15 1015.6F
VENICE                     73 67  160/ 15/ 16   N/A

$$
FLZ066-069-070-075>078-162-262-165-265-171800-
SOUTHWEST FLORIDA AND KEYS
  
CITY           SKY/WX    TMP DP  RH WIND       PRES   REMARKS
PUNTA GORDA    PTSUNNY   81  66  60 S14G22    30.02F                  
FT MYERS       PTSUNNY   82  67  60 S9        30.00F                  
SOUTHWEST INTL FAIR      82  67  60 S15       30.01F                  
NAPLES         FAIR      82  69  64 S13G23    30.01F                  
MARCO ISLAND   FAIR      80  71  74 S16       30.03F                  
IMMOKALEE      FAIR      88  68  51 S13G21    29.99F                  
MARATHON       FAIR      85  70  60 S14       30.02F                  
KEY WEST NAS   FAIR      83  70  64 SE16      30.02F                  
KEY WEST INTL  FAIR      81  70  69 SE14      30.02F                  

STATION/POSITION SKY/WX   TEMP    WIND        PRES    WAVE   SWELL
                          AIR SEA DIR/SP/G            HT/PER HT/PER
                          (F)     (DEG/KT/KT) (MB)    (FT/S) (FT/S)
NAPLES                     76 71  150/ 13/ 20 1016.4F
26.0N   85.6W              79 80  170/ 19/ 25 1013.2
DRY TORTUGAS               77     170/ 15/ 16 1016.0F
SAND KEY                   76                 1016.6F
SOMBRERO KEY               78                 1016.1F
LONG KEY                   78 76  160/ 12/ 13 1016.5F
MOLASSES REEF              78 78  150/ 12/ 14 1017.3F

$$
FLZ067-068-071>074-168-172>174-171800-
SOUTHEAST FLORIDA 
  
CITY           SKY/WX    TMP DP  RH WIND       PRES   REMARKS
W PALM BEACH   FAIR      81  65  58 S12       30.03F                  
BOCA RATON     MOSUNNY   86  68  54 MISG      30.03F                  
FT LAUDER-EXEC PTSUNNY   86  68  54 S10       30.02F                  
FT LAUDERDALE  FAIR      80  70  71 S12       30.02F                  
POMPANO BEACH  FAIR      83  68  60 S15G22    30.03F                  
PEMBROKE PINES FAIR      84  66  54 S14       30.04F                  
OPA LOCKA      FAIR      83  66  56 S13       30.04F                  
MIAMI          FAIR      82  69  64 SE14G21   30.03F                  
WEST KENDALL   PTSUNNY   83  68  60 S9G20     30.03F                  
HOMESTEAD      FAIR      82  66  58 S14       30.02F                  

STATION/POSITION SKY/WX   TEMP    WIND        PRES    WAVE   SWELL
                          AIR SEA DIR/SP/G            HT/PER HT/PER
                          (F)     (DEG/KT/KT) (MB)    (FT/S) (FT/S)
VIRGINIA KEY               78 76  150/ 12/ 14 1016.8F
LAKE WORTH                 77 76  190/  9/ 11 1018.1F
FOWEY ROCKS                79 76  150/ 16/ 17 1017.7F
SETTLEMENT POINT           77     180/ 11/ 13 1017.6F

$$